Location: Beetenbrück
(52.8113°N, 9.5946°E)
Time: 21:41:25
(UTC+00:00)

Ariane Rocket - Pass Details

Date: 14 April 2026
Orbit: 755 x 763 km, 98.4° (Epoch: 12 May)

Event Time Altitude Azimuth Distance (km) Brightness Sun altitude
Exits shadow 21:09:44 36° 194° (SSW) 1,196 3.7 -21.5°
Maximum altitude 21:11:40 60° 258° (WSW) 868 3.3 -21.6°
Drops below altitude 10° 21:16:40 10° 339° (NNW) 2,296 6.6 -22.1°
Sets 21:19:01 0° 343° (NNW) 3,226 7.5 -22.3°
